Back to catalog

QIANFAN-149

AliveCommunicationsPO
NORAD 69108·PAYLOAD·🇨🇳 China

Launched May 17, 2026 from Wenchang Space Launch Site

Loading…

Next Passes (next 24 hours)

TLE

FreshSource: Space-Track

Epoch: Sep 14, 2026, 14:34 UTC

1 69108U 26108E   26257.60745623  .00000105  00000-0  14339-3 0  9995
2 69108  89.0185  13.1343 0002240 110.1561 249.9831 13.51023050 16503

Track QIANFAN-149 in real time with AllMySat

Download on the App Store